| time (UTC) | temp C | wind direction | speed KPH | gust KPH | rain 1hr cm | rain 24hr cm | rain mn cm | humidity % | barometer mb |
| 20260510101827 | 21 | 0.0 | 1.6 | 0.00 | 0.53 | 0.00 | 54 | ||
| 20260510100930 | 20 | 0.0 | 1.6 | 0.00 | 0.56 | 0.00 | 55 | ||
| 20260510095846 | 20 | 0.0 | 1.6 | 0.00 | 0.64 | 0.00 | 55 | ||
| 20260510094849 | 20 | 0.0 | 1.6 | 0.00 | 0.69 | 0.00 | 55 | ||
| 20260510093826 | 20 | 0.0 | 1.6 | 0.00 | 0.76 | 0.00 | 57 | ||
| 20260510092851 | 19 | 0.0 | 1.6 | 0.00 | 0.79 | 0.00 | 59 | ||
| 20260510091825 | 19 | 0.0 | 1.6 | 0.00 | 0.84 | 0.00 | 60 | ||
| 20260510090850 | 19 | 0.0 | 1.6 | 0.00 | 0.94 | 0.00 | 61 | ||
| 20260510085650 | 18 | 0.0 | 1.6 | 0.00 | 1.02 | 0.00 | 63 | ||
| 20260510084626 | 18 | 0.0 | 0.0 | 0.00 | 1.04 | 0.00 | 65 | ||
| 20260510083651 | 18 | 0.0 | 1.6 | 0.00 | 1.14 | 0.00 | 67 | ||
| 20260510082626 | 18 | 0.0 | 1.6 | 0.00 | 1.22 | 0.00 | 70 | ||
| 20260510081650 | 17 | 0.0 | 1.6 | 0.00 | 1.30 | 0.00 | 70 | ||
| 20260510080626 | 17 | 0.0 | 1.6 | 0.00 | 1.32 | 0.00 | 72 | ||
| 20260510075650 | 17 | 0.0 | 1.6 | 0.00 | 1.35 | 0.00 | 76 | ||
| 20260510074626 | 17 | 0.0 | 1.6 | 0.00 | 1.35 | 0.00 | 79 | ||
| 20260510073651 | 16 | 0.0 | 0.0 | 0.00 | 1.35 | 0.00 | 81 | ||
| 20260510072714 | 16 | 0.0 | 0.0 | 0.00 | 1.35 | 0.00 | 83 | ||
| 20260510071758 | 16 | 0.0 | 1.6 | 0.00 | 1.35 | 0.00 | 86 | ||
| 20260510070627 | 16 | 0.0 | 0.0 | 0.00 | 1.35 | 0.00 | 88 | ||
| 20260510065655 | 15 | 0.0 | 0.0 | 0.00 | 1.35 | 0.00 | 90 | ||
| 20260510064716 | 15 | 0.0 | 1.6 | 0.00 | 1.35 | 0.00 | 94 | ||
| 20260510063740 | 15 | 0.0 | 1.6 | 0.00 | 1.35 | 0.00 | 97 | ||
| 20260510062626 | 14 | 0.0 | 1.6 | 0.00 | 1.35 | 0.00 | 97 | ||
| 20260510061651 | 14 | 0.0 | 1.6 | 0.00 | 1.35 | 0.00 | 97 | ||
| 20260510060734 | -17 | 0.0 | 0.0 | 0.00 | 1.35 | 0.00 | |||
| 20260510055800 | 13 | 0.0 | 0.0 | 0.00 | 1.35 | 0.00 | 96 | ||
| 20260510054647 | 13 | 0.0 | 0.0 | 0.00 | 1.35 | 0.00 | 96 | ||
| 20260510053652 | 13 | 0.0 | 0.0 | 0.00 | 1.35 | 0.00 | 96 | ||
| 20260510052626 | 13 | 0.0 | 0.0 | 0.00 | 1.35 | 0.00 | 96 | ||
| 20260510051652 | 13 | 0.0 | 0.0 | 0.00 | 1.35 | 0.00 | 95 | ||
| 20260510050626 | 13 | 0.0 | 0.0 | 0.00 | 1.35 | 0.00 | 95 | ||
| 20260510045426 | 13 | 0.0 | 0.0 | 0.00 | 1.35 | 0.00 | 95 | ||
| 20260510044450 | 13 | 0.0 | 0.0 | 0.00 | 1.35 | 0.00 | 95 | ||
| 20260510043447 | 13 | 0.0 | 0.0 | 0.00 | 1.35 | 0.00 | 95 | ||
| 20260510042451 | 13 | 0.0 | 0.0 | 0.00 | 1.35 | 0.00 | 95 | ||
| 20260510041427 | 13 | 0.0 | 0.0 | 0.00 | 1.35 | 0.00 | 95 | ||
| 20260510040450 | 13 | 0.0 | 0.0 | 0.00 | 1.35 | 0.00 | 95 | ||
| 20260510035311 | 13 | 0.0 | 0.0 | 0.00 | 1.35 | 0.00 | 94 | ||
| 20260510034226 | 13 | 0.0 | 0.0 | 0.00 | 1.35 | 0.00 | 94 | ||
| 20260510033250 | 13 | 0.0 | 0.0 | 0.00 | 1.35 | 0.00 | 94 | ||
| 20260510032226 | 13 | 0.0 | 0.0 | 0.00 | 1.35 | 0.00 | 94 | ||
| 20260510031251 | 14 | 0.0 | 0.0 | 0.00 | 1.35 | 0.00 | 94 | ||
| 20260510030247 | 14 | 0.0 | 0.0 | 0.00 | 1.35 | 0.00 | 94 | ||
| 20260510025826 | 14 | 0.0 | 0.0 | 0.00 | 1.35 | 0.00 | 94 | ||
| 20260510024850 | 14 | 0.0 | 0.0 | 0.00 | 1.35 | 0.00 | 94 | ||
| 20260510023847 | 14 | 0.0 | 0.0 | 0.00 | 1.35 | 0.00 | 94 | ||
| 20260510022850 | 14 | 0.0 | 0.0 | 0.00 | 1.35 | 0.00 | 94 | ||
| 20260510020851 | 15 | 0.0 | 0.0 | 0.00 | 1.35 | 0.00 | 94 | ||
| 20260510015828 | 15 | 0.0 | 0.0 | 0.00 | 1.35 | 0.00 | 93 | ||
| 20260510014850 | 15 | 0.0 | 0.0 | 0.00 | 1.35 | 0.00 | 93 | ||
| 20260510013827 | 15 | 0.0 | 0.0 | 0.00 | 1.35 | 0.00 | 93 | ||
| 20260510012850 | 15 | 0.0 | 0.0 | 0.00 | 1.35 | 0.00 | 93 | ||
| 20260510011827 | 15 | 0.0 | 0.0 | 0.00 | 1.35 | 0.00 | 93 | ||
| 20260510010850 | 15 | 0.0 | 0.0 | 0.00 | 1.35 | 0.00 | 93 | ||
| 20260510005826 | 15 | 0.0 | 0.0 | 0.00 | 1.35 | 0.00 | 93 | ||
| 20260510004851 | 15 | 0.0 | 0.0 | 0.00 | 1.35 | 0.00 | 93 | ||
| 20260510003827 | 15 | 0.0 | 0.0 | 0.00 | 1.35 | 0.00 | 92 | ||
| 20260510002850 | 15 | 0.0 | 0.0 | 0.00 | 1.35 | 0.00 | 92 | ||
| 20260510001827 | 16 | 0.0 | 0.0 | 0.00 | 1.35 | 0.00 | 92 | ||
| 20260510000851 | 16 | 0.0 | 1.6 | 0.00 | 1.35 | 0.00 | 92 | ||
| 20260509235827 | 16 | 0.0 | 0.0 | 0.00 | 1.35 | 0.00 | 92 | ||
| 20260509234851 | 16 | 0.0 | 0.0 | 0.00 | 1.35 | 0.00 | 91 | ||
| 20260509233846 | 16 | 0.0 | 0.0 | 0.00 | 1.35 | 0.00 | 91 | ||
| 20260509232850 | 16 | 0.0 | 0.0 | 0.00 | 1.35 | 0.00 | 90 | ||
| 20260509231827 | 16 | 0.0 | 1.6 | 0.00 | 1.35 | 0.00 | 90 | ||
| 20260509230850 | 16 | 0.0 | 0.0 | 0.00 | 1.35 | 0.00 | 90 | ||
| 20260509225826 | 16 | 0.0 | 0.0 | 0.00 | 1.35 | 0.00 | 89 | ||
| 20260509224911 | 16 | 0.0 | 0.0 | 0.00 | 1.35 | 0.00 | 89 | ||
| 20260509223827 | 16 | 0.0 | 0.0 | 0.00 | 1.35 | 0.00 | 89 | ||
| 20260509222851 | 16 | 0.0 | 0.0 | 0.00 | 1.35 | 0.00 | 88 | ||
| 20260509221828 | 16 | 0.0 | 0.0 | 0.00 | 1.35 | 0.00 | 88 | ||
| 20260509220853 | 16 | 0.0 | 0.0 | 0.00 | 1.35 | 0.00 | 89 | ||
| 20260509215827 | 16 | 0.0 | 1.6 | 0.00 | 1.35 | 1.35 | 88 | ||
| 20260509214851 | 16 | 0.0 | 0.0 | 0.00 | 1.35 | 1.35 | 88 | ||
| 20260509213826 | 16 | 0.0 | 0.0 | 0.00 | 1.35 | 1.35 | 86 | ||
| 20260509212851 | 16 | 0.0 | 0.0 | 0.00 | 1.35 | 1.35 | 86 | ||
| 20260509211827 | 16 | 0.0 | 0.0 | 0.00 | 1.35 | 1.35 | 86 | ||
| 20260509210850 | -17 | 0.0 | 0.0 | 0.00 | 1.35 | 1.35 | |||
| 20260509205828 | 16 | 0.0 | 0.0 | 0.00 | 1.35 | 1.35 | 84 | ||
| 20260509204911 | 16 | 0.0 | 0.0 | 0.00 | 1.35 | 1.35 | 84 | ||
| 20260509203846 | 16 | 0.0 | 0.0 | 0.00 | 1.35 | 1.35 | 83 | ||
| 20260509202911 | 16 | 0.0 | 0.0 | 0.00 | 1.35 | 1.35 | 82 | ||
| 20260509201827 | 16 | 0.0 | 0.0 | 0.00 | 1.35 | 1.35 | 82 | ||
| 20260509200911 | 16 | 0.0 | 0.0 | 0.00 | 1.35 | 1.35 | 82 | ||
| 20260509195827 | 16 | 0.0 | 0.0 | 0.00 | 1.35 | 1.35 | 81 | ||
| 20260509194850 | 17 | 0.0 | 0.0 | 0.00 | 1.35 | 1.35 | 81 | ||
| 20260509193827 | 17 | 0.0 | 0.0 | 0.00 | 1.35 | 1.35 | 80 | ||
| 20260509192851 | 17 | 0.0 | 0.0 | 0.00 | 1.35 | 1.35 | 80 | ||
| 20260509191826 | 17 | 0.0 | 0.0 | 0.00 | 1.35 | 1.35 | 79 | ||
| 20260509190911 | 17 | 0.0 | 0.0 | 0.00 | 1.35 | 1.35 | 74 | ||
| 20260509185827 | 17 | 0.0 | 0.0 | 0.00 | 1.35 | 1.35 | 74 | ||
| 20260509184851 | 17 | 0.0 | 0.0 | 0.00 | 1.35 | 1.35 | 73 | ||
| 20260509183827 | 18 | 0.0 | 0.0 | 0.00 | 1.35 | 1.35 | 73 | ||
| 20260509182851 | 18 | 0.0 | 0.0 | 0.00 | 1.35 | 1.35 | 72 | ||
| 20260509181827 | 18 | 0.0 | 0.0 | 0.00 | 1.35 | 1.35 | 71 | ||
| 20260509180851 | 18 | 0.0 | 0.0 | 0.00 | 1.35 | 1.35 | 70 | ||
| 20260509180043 | 19 | 0.0 | 0.0 | 0.00 | 1.35 | 1.35 | 67 | ||
| 20260509174911 | 20 | 0.0 | 0.0 | 0.00 | 1.35 | 1.35 | 64 | ||
| 20260509173827 | 21 | 0.0 | 0.0 | 0.00 | 1.35 | 1.35 | 64 | ||
| 20260509172911 | 21 | 0.0 | 0.0 | 0.00 | 1.35 | 1.35 | 61 | ||
| 20260509171827 | 22 | 0.0 | 0.0 | 0.00 | 1.35 | 1.35 | 55 | ||
| 20260509170939 | 23 | 0.0 | 1.6 | 0.00 | 1.35 | 1.35 | 54 | ||
| 20260509165827 | 23 | 0.0 | 0.0 | 0.00 | 1.35 | 1.35 | 55 | ||
| 20260509164851 | 23 | 0.0 | 0.0 | 0.00 | 1.35 | 1.35 | 54 | ||
| 20260509163827 | 24 | 0.0 | 0.0 | 0.00 | 1.35 | 1.35 | 55 | ||
| 20260509162939 | 23 | 0.0 | 1.6 | 0.00 | 1.35 | 1.35 | 58 | ||
| 20260509162023 | 22 | 0.0 | 0.0 | 0.00 | 1.35 | 1.35 | 60 | ||
| 20260509161203 | 22 | 0.0 | 0.0 | 0.00 | 1.35 | 1.35 | 58 | ||
| 20260509153827 | 22 | 0.0 | 0.0 | 0.00 | 1.35 | 1.35 | 68 | ||
| 20260509152851 | 21 | 0.0 | 0.0 | 0.00 | 1.35 | 1.35 | 65 | ||
| 20260509151827 | 22 | 0.0 | 0.0 | 0.00 | 1.35 | 1.35 | 71 | ||
| 20260509150852 | 20 | 0.0 | 1.6 | 0.00 | 1.35 | 1.35 | 72 | ||
| 20260509145908 | 19 | 0.0 | 0.0 | 0.00 | 1.35 | 1.35 | 73 | ||
| 20260509144851 | 19 | 0.0 | 0.0 | 0.00 | 1.35 | 1.35 | 73 | ||
| 20260509143827 | 20 | 0.0 | 1.6 | 0.00 | 1.35 | 1.35 | 73 | ||
| 20260509142852 | 20 | 0.0 | 1.6 | 0.00 | 1.35 | 1.35 | 74 | ||
| 20260509141827 | 20 | 0.0 | 1.6 | 0.00 | 1.35 | 1.35 | 76 | ||
| 20260509140911 | 20 | 0.0 | 1.6 | 0.00 | 1.35 | 1.35 | 84 | ||
| 20260509135827 | 18 | 0.0 | 1.6 | 0.00 | 1.35 | 1.35 | 91 | ||
| 20260509134911 | 17 | 0.0 | 1.6 | 0.00 | 1.35 | 1.35 | 95 | ||
| 20260509133827 | 17 | 0.0 | 1.6 | 0.03 | 1.35 | 1.35 | 98 | ||
| 20260509132851 | 16 | 0.0 | 0.0 | 0.05 | 1.35 | 1.35 | 98 | ||
| 20260509131827 | 16 | 0.0 | 0.0 | 0.10 | 1.35 | 1.35 | 98 | ||
| 20260509130851 | 16 | 0.0 | 1.6 | 0.10 | 1.35 | 1.35 | 97 | ||
| 20260509125827 | 16 | 0.0 | 0.0 | 0.15 | 1.35 | 1.35 | 97 | ||
| 20260509124851 | 16 | 0.0 | 0.0 | 0.18 | 1.35 | 1.35 | 97 | ||
| 20260509123828 | 15 | 0.0 | 0.0 | 0.20 | 1.32 | 1.32 | 97 | ||
| 20260509122851 | 15 | 0.0 | 0.0 | 0.20 | 1.30 | 1.30 | 96 | ||
| 20260509121828 | 15 | 0.0 | 0.0 | 0.20 | 1.27 | 1.27 | 96 | ||
| 20260509120851 | 15 | 0.0 | 0.0 | 0.23 | 1.27 | 1.27 | 95 | ||
| 20260509115828 | 15 | 0.0 | 0.0 | 0.18 | 1.19 | 1.19 | 95 | ||
| 20260509114851 | 15 | 0.0 | 0.0 | 0.20 | 1.17 | 1.17 | 94 | ||
| 20260509113828 | 15 | 0.0 | 0.0 | 0.20 | 1.12 | 1.12 | 94 | ||
| 20260509112852 | 15 | 0.0 | 0.0 | 0.23 | 1.09 | 1.09 | 94 | ||
| 20260509111827 | 16 | 0.0 | 1.6 | 0.23 | 1.04 | 1.04 | 94 | ||
| 20260509110852 | 15 | 0.0 | 0.0 | 0.23 | 1.02 | 1.02 | 93 | ||
| 20260509105651 | 15 | 0.0 | 0.0 | 0.30 | 1.02 | 1.02 | 93 | ||
| 20260509104627 | 15 | 0.0 | 0.0 | 0.30 | 0.97 | 0.97 | 93 | ||
| 20260509103652 | 15 | 0.0 | 1.6 | 0.30 | 0.89 | 0.89 | 93 |